TimeEDT,TemperatureF,Dew PointF,Humidity,Sea Level PressureIn,VisibilityMPH,Wind Direction,Wind SpeedMPH,Gust SpeedMPH,PrecipitationIn,Events,Conditions,WindDirDegrees,DateUTC
12:53 AM,73.0,68.0,84,29.76,8.0,SW,6.9,-,N/A,,Scattered Clouds,230,2013-06-26 04:53:00
1:53 AM,72.0,69.1,91,29.75,9.0,SW,4.6,-,N/A,,Partly Cloudy,230,2013-06-26 05:53:00
2:53 AM,71.1,68.0,90,29.74,8.0,Calm,Calm,-,N/A,,Clear,0,2013-06-26 06:53:00
3:53 AM,70.0,66.9,90,29.73,8.0,Calm,Calm,-,N/A,,Clear,0,2013-06-26 07:53:00
4:53 AM,71.1,68.0,90,29.75,8.0,Calm,Calm,-,N/A,,Clear,0,2013-06-26 08:53:00
5:53 AM,70.0,68.0,93,29.76,4.0,Calm,Calm,-,N/A,,Clear,0,2013-06-26 09:53:00
6:53 AM,73.0,69.1,87,29.76,7.0,SSW,8.1,-,N/A,,Scattered Clouds,210,2013-06-26 10:53:00
7:53 AM,77.0,70.0,79,29.77,9.0,Calm,Calm,-,N/A,,Scattered Clouds,0,2013-06-26 11:53:00
8:53 AM,81.0,70.0,69,29.77,10.0,West,4.6,-,N/A,,Partly Cloudy,280,2013-06-26 12:53:00
9:53 AM,84.0,69.1,61,29.77,10.0,West,9.2,-,N/A,,Clear,270,2013-06-26 13:53:00
10:53 AM,84.9,69.1,59,29.76,10.0,West,9.2,-,N/A,,Clear,270,2013-06-26 14:53:00
11:53 AM,86.0,69.1,57,29.77,10.0,West,10.4,-,N/A,,Scattered Clouds,270,2013-06-26 15:53:00
12:53 PM,88.0,69.1,53,29.75,10.0,WSW,9.2,-,N/A,,Partly Cloudy,250,2013-06-26 16:53:00
1:53 PM,88.0,69.1,53,29.74,10.0,WSW,12.7,-,N/A,,Scattered Clouds,240,2013-06-26 17:53:00
2:53 PM,87.1,70.0,57,29.75,10.0,SW,9.2,-,N/A,,Scattered Clouds,230,2013-06-26 18:53:00
3:53 PM,84.9,70.0,61,29.75,10.0,WSW,13.8,19.6,N/A,,Partly Cloudy,250,2013-06-26 19:53:00
4:53 PM,82.0,70.0,67,29.74,10.0,WSW,8.1,-,N/A,,Clear,250,2013-06-26 20:53:00
5:53 PM,82.0,70.0,67,29.77,10.0,West,6.9,-,N/A,,Clear,260,2013-06-26 21:53:00
6:53 PM,80.1,70.0,71,29.78,10.0,West,9.2,-,N/A,,Clear,280,2013-06-26 22:53:00
7:53 PM,78.1,70.0,76,29.80,10.0,WNW,6.9,-,0.00,Rain,Light Rain,290,2013-06-26 23:53:00
8:53 PM,75.0,72.0,90,29.80,9.0,SW,3.5,-,0.00,,Clear,220,2013-06-27 00:53:00
9:53 PM,75.0,71.1,87,29.81,10.0,SW,3.5,-,N/A,,Clear,230,2013-06-27 01:53:00
10:53 PM,73.9,71.1,91,29.82,8.0,Calm,Calm,-,N/A,,Clear,0,2013-06-27 02:53:00
11:33 PM,71.6,69.8,94,29.84,5.0,Calm,Calm,-,N/A,,Partly Cloudy,0,2013-06-27 03:33:00
11:50 PM,71.6,69.8,94,29.84,4.0,NNE,5.8,-,N/A,,Mostly Cloudy,30,2013-06-27 03:50:00
11:53 PM,72.0,70.0,93,29.84,4.0,NNE,4.6,-,N/A,,Mostly Cloudy,30,2013-06-27 03:53:00